GFSSE_con_mlcape_021.txt.gz
CAPE
282 331 369 522 437 296 337 396 485 835 1129 1225 1370 1127 1274 1560 1599 1910 1818 1701 1814 1815 1620 1603 1547 1470 1421 1422 1414 1523 1340 1415 1519 1211 1114 980 1006 970 475 829 633 682 1258
301 372 420 576 545 522 505 545 671 576 802 921 1108 1227 1419 1593 1836 1947 1831 1640 1718 1688 1579 1525 1534 1475 1506 1495 1331 1287 1420 1449 1401 1417 1150 1042 1169 865 488 436 449 501 1236
240 275 318 502 534 774 1061 864 784 615 738 951 1103 1184 1414 1744 1934 1846 1795 1811 1782 1668 1592 1528 1486 1488 1496 1373 1336 1273 1170 1077 768 685 706 1071 713 510 862 436 1021 886 1138
126 249 269 587 769 1026 1106 996 835 761 805 925 973 1113 1281 1850 1862 1703 1695 1760 1691 1638 1532 1408 1488 1514 1536 1450 1369 1408 1296 1068 797 996 1191 247 240 385 1045 741 1124 1208 1222
300 573 347 773 1012 1220 1167 1294 1104 1166 1188 966 1028 1188 1490 1928 1825 1606 1657 1706 1606 1543 1476 1524 1548 1589 1582 1614 1504 1509 1437 1101 1037 998 431 345 207 306 986 1075 920 997 813
572 715 595 989 954 1220 1272 1431 1523 1598 1402 1024 1156 1642 1900 1800 1593 1568 1735 1591 1552 1560 1563 1508 1593 1696 1802 1774 1567 1226 1291 1275 1323 1052 344 106 442 682 811 1132 841 1163 646
729 922 733 1273 1373 1406 1567 1843 1693 1633 1366 1137 1554 1875 1805 1820 1658 1782 1593 1439 1513 1614 1687 1779 1743 1548 1573 1659 1279 1247 1283 1365 1156 1442 918 287 178 506 999 306 753 867 981
877 927 1034 1546 1581 1675 1665 1613 1359 1348 1383 1518 1751 1783 1944 1951 1760 1663 1485 1520 1593 1739 1829 2049 1829 1303 1412 1334 1289 1200 1080 1094 1523 1614 1250 895 265 267 776 312 313 943 779
746 897 997 1187 1416 1832 1675 1415 1426 1533 1636 1649 1699 1795 1820 1822 1528 1222 1107 1349 1548 1809 1858 1679 1583 1172 1253 1054 1053 1149 976 1006 1785 1578 1451 1295 394 1123 469 1025 1028 983 1155
982 858 974 1122 1028 1532 1685 1359 1362 1479 1451 1512 1586 1721 1657 1394 901 727 1086 1677 1313 1420 1598 1615 1387 1034 1038 940 819 796 961 1360 1860 1409 1481 1459 699 891 1651 609 1210 965 1130
934 966 1049 1101 924 940 1180 1323 1382 1509 1527 1500 1357 1586 897 1433 1500 1655 1346 821 1151 1356 1494 1272 1342 971 1085 1289 1086 886 1017 1386 1357 1342 1637 1012 913 988 1471 892 441 996 760
926 970 1009 887 922 863 662 1186 954 893 865 845 908 1380 1019 1255 1381 1080 1014 950 1000 723 1048 1136 834 1078 1529 1750 1646 1505 1548 1041 1095 1380 1618 911 1027 1385 1149 1361 696 704 785
995 959 900 1216 864 830 1355 934 1051 990 932 958 1361 1362 1175 1267 1115 1077 1389 1893 1923 1276 1691 1642 1496 1603 1507 1348 1344 1114 1016 972 805 1016 1483 1058 930 1402 1621 1405 1139 958 780
850 733 612 827 1069 961 1016 813 889 733 709 733 974 1377 1350 1305 1016 1229 1159 1568 1708 1309 1518 1628 1555 1788 1147 1429 1395 1257 1099 962 970 767 1504 1119 899 1266 1680 1654 1697 1038 931
782 711 711 877 1239 1175 1510 836 822 744 653 680 836 1224 1050 966 976 1211 1337 1344 1592 1416 1300 1310 1318 1509 1318 1260 1312 1209 887 868 921 700 1258 1191 977 1045 1608 1832 1777 1460 1426
774 769 885 1118 1257 1374 1365 1539 979 1017 886 704 764 790 1364 1168 1151 1124 1467 1436 1370 1167 1541 1511 1546 1642 1551 1249 1088 899 582 469 446 285 251 1383 1166 1097 1232 1664 1737 1748 1561
739 811 919 1081 1241 1498 1457 1484 1242 1046 853 907 781 1122 1310 1828 1759 1816 1783 1446 1216 1326 1865 1728 1819 1634 1330 1146 471 207 103 44 21 2 38 59 1032 1255 1117 1194 1339 1318 1642
595 679 889 945 1039 1395 1512 1578 1388 1093 1195 1152 983 1309 1480 1623 1910 1821 1546 1350 1421 1532 1527 1351 1273 1145 166 32 0 0 3 4 11 120 131 129 212 619 1284 1094 1130 877 879
635 715 847 949 938 1272 1588 1554 1471 1430 1663 1403 1517 1393 1487 1693 1895 1905 1385 1263 1911 1461 1522 1413 911 338 26 0 0 1 18 35 63 76 49 162 260 180 359 1132 1081 1104 1129
616 823 973 968 1036 1265 1482 1735 1604 1612 1686 1412 1143 1627 1644 1604 1736 1641 1448 1613 1697 1562 1400 1028 550 159 0 0 0 0 11 61 96 153 98 169 336 461 660 1102 1414 1332 1131
623 981 1087 1215 1461 1384 1504 1661 1484 1391 1226 1082 1257 1406 1863 1913 1730 1690 1507 1423 1544 1108 1032 530 151 0 0 36 0 28 24 46 48 165 173 34 159 449 551 836 1409 1418 1200
766 1111 1451 1572 1876 1866 1904 1594 1372 904 609 924 1540 1713 1934 1708 1659 1664 1597 1490 1421 540 842 161 0 0 0 31 0 2 15 66 73 98 26 1 0 42 232 694 739 882 990
762 1145 1747 2036 2271 2277 2104 1807 1744 1591 1046 1235 541 1010 1598 1404 1495 1710 1808 1107 1326 416 1 51 29 13 2 3 10 23 16 62 28 57 80 2 0 1 3 19 10 2 55
835 1206 1752 2286 2508 2511 2540 1880 1539 1409 903 453 359 497 501 632 658 1184 703 700 723 0 14 13 23 44 2 9 4 2 1 19 14 40 19 0 0 0 0 0 0 0 0
820 1106 1537 2370 2772 2670 2675 2068 1750 1442 677 685 540 854 533 968 757 459 783 736 197 0 13 118 22 79 93 0 3 14 15 1 0 0 5 16 2 0 0 0 0 0 0
636 900 1184 2225 2890 3106 2949 2812 2452 2219 1101 976 918 920 465 678 615 610 803 519 106 0 158 152 63 59 14 57 42 0 1 13 19 14 14 22 31 9 3 0 0 0 0

GFSSE_con_mlcape_024.txt.gz
CAPE
66 56 181 161 141 149 483 898 1232 1477 1543 1352 1391 1485 1484 1706 1535 1582 1622 1734 1707 1670 1645 1574 1547 1522 1471 1474 1508 1451 1396 1488 1187 1047 1026 1098 930 364 710 652 594 1030 1413
193 280 164 283 353 438 560 772 1052 1232 1386 1322 1297 1518 1707 1685 1580 1639 1689 1703 1688 1586 1544 1547 1478 1467 1416 1348 1269 1314 1365 1123 1372 1129 1096 981 653 351 463 820 835 1081 1056
286 385 381 453 423 625 826 627 891 1048 1180 1234 1469 1736 1786 1783 1706 1714 1703 1732 1695 1623 1494 1469 1504 1520 1362 1322 1320 1192 1071 728 738 1021 788 830 259 656 657 976 1134 1234 964
154 141 177 505 620 898 944 694 726 856 1101 1136 1332 1673 1753 1735 1632 1583 1637 1672 1585 1488 1441 1538 1568 1529 1497 1386 1376 1315 1021 720 810 1177 833 807 24 985 660 1178 1206 1267 1232
138 396 667 613 1161 1154 1051 1008 1045 1084 1071 1166 1261 1516 1751 1679 1450 1544 1621 1508 1486 1494 1508 1528 1598 1587 1573 1530 1348 1375 1191 960 1139 1197 756 103 105 955 966 1093 1023 990 883
566 338 780 1148 1279 1362 1388 1357 1446 1318 1003 1074 1416 1715 1642 1473 1410 1647 1513 1439 1468 1482 1531 1688 1655 1490 1581 1483 1228 1037 1222 1181 1183 1213 617 227 187 1017 1249 823 1269 906 666
597 610 902 1206 1358 1408 1509 1604 1648 1372 1041 1270 1659 1622 1650 1553 1607 1626 1308 1301 1452 1643 1699 1947 1593 1405 1363 1386 1034 1025 983 1243 1284 1297 872 177 403 937 838 968 1092 866 1127
680 689 935 1432 1491 1560 1862 1659 1568 1304 1120 1378 1637 1633 1685 1628 1537 1391 1206 1324 1515 1688 1836 1759 1456 1245 1286 956 794 721 840 1067 1166 1012 622 71 52 660 106 411 869 1003 829
788 849 1167 1258 1599 1668 1585 1322 1285 1339 1371 1533 1485 1465 1617 1645 1407 1141 1034 1001 1240 1503 1534 1597 1334 994 1021 781 625 519 844 1142 1257 1005 705 292 153 587 796 400 772 965 1018
812 952 1263 1320 1511 1477 1328 1311 1355 1336 1310 1292 1202 1269 1457 1608 1346 1072 1243 1531 1095 1158 1184 1168 1071 845 837 941 907 898 1168 503 1203 239 977 487 640 958 573 1112 949 1137 1161
728 811 1047 1189 1609 1461 1093 945 1233 1270 1226 1133 1019 1163 1333 636 1075 1456 1570 954 736 969 1279 1201 1009 981 1064 1233 1404 1344 1120 166 883 48 1227 510 690 1224 1471 626 1227 1130 1148
656 598 904 730 753 1325 873 1049 1015 883 865 780 901 1317 1002 1090 1174 1669 1004 1136 865 1026 1257 1292 1252 882 1534 1707 1765 1637 738 1043 731 376 999 731 962 1139 1567 912 552 1041 874
867 830 1026 878 827 625 1087 707 1104 1096 1041 1062 1392 1259 1868 1473 1294 1113 1178 1844 1096 1869 1657 1649 777 25 1125 1625 1649 1462 1038 805 657 468 699 627 1292 1291 1342 1503 794 760 756
651 827 958 1096 1067 1192 1161 731 1207 1274 1167 1281 1385 1236 1129 1678 891 1073 1431 1356 1455 1538 1728 1811 934 983 1561 1410 1442 1133 1152 642 504 1495 887 1018 1268 1455 1662 1704 1466 1091 1026
631 766 1330 1414 1071 1373 1576 964 964 1125 645 818 1310 1278 1104 1352 1223 1292 1308 1217 1734 1561 1090 1238 1403 1480 1021 1266 1278 1156 748 641 450 1211 1452 1094 1052 1232 1621 1878 1939 1494 1197
704 589 905 1201 1245 1266 1422 1547 1649 1061 974 460 852 1758 1174 1034 1458 1828 1297 1314 1503 1203 1483 1779 1821 1728 1622 1722 1058 998 259 215 179 119 572 1356 1039 1054 1347 1803 1882 1845 1669
578 601 889 1080 1542 1111 1428 1575 1651 1212 725 835 788 1620 1744 1643 1794 1621 1824 1658 1550 1505 1523 1900 1598 1816 1739 1677 1353 639 8 0 15 0 14 97 1305 1175 1088 1409 1398 1359 1686
680 905 1072 771 1414 1548 1756 1875 1223 990 1088 1038 1455 820 1081 1748 1570 1712 1676 1696 1428 1405 1397 1314 1260 1156 1046 44 0 0 0 0 0 40 154 76 646 1564 1161 1092 1242 1130 1135
749 1012 869 1143 1158 1749 1578 1772 1712 1585 1216 1237 1071 1179 1364 1571 1769 1612 1724 1592 1721 1548 1428 1274 1078 686 206 0 0 4 25 39 43 52 16 50 132 219 1536 1144 828 879 959
642 941 1112 1073 1207 1751 1626 1746 2003 1555 1944 1470 1868 1154 1568 1703 1418 1459 1628 1730 1603 1487 1509 917 784 250 0 0 0 0 0 28 125 267 11 166 128 580 1565 1192 1090 1324 1021
689 1050 1047 1237 1175 2212 2165 1744 1440 1544 1599 1247 1585 1221 1554 1962 1983 1548 1572 1460 1559 1271 1025 805 170 0 0 10 0 13 36 13 21 110 14 2 20 303 428 853 1080 1038 967
651 893 1375 1234 1909 1400 1667 1726 1615 1312 1718 1250 1170 1191 1556 1936 1720 1428 1420 1452 1539 1113 916 222 1 0 0 20 0 0 14 41 34 30 10 0 0 28 469 536 501 547 985
714 1142 1362 1451 1896 1592 1936 1671 1431 1749 1988 1493 1727 1350 1851 2058 1753 1684 1883 1471 1417 401 485 72 60 43 2 134 0 5 59 66 62 97 12 0 0 0 14 1 0 0 17
780 1250 1755 1836 1726 2558 1395 2097 1416 1475 1325 461 550 1487 2040 1552 1352 1831 1631 976 943 165 241 31 70 21 15 20 42 0 0 0 35 50 21 10 0 0 0 0 0 0 0
864 1243 1977 2228 2343 2462 2428 2103 2131 1777 641 1117 822 842 1545 1005 808 1414 736 1059 560 0 163 179 55 6 192 4 21 37 0 0 0 0 23 14 22 2 0 0 0 0 0
776 1157 1525 2593 2574 2460 2721 2136 1909 1967 1089 1041 1059 999 692 1062 947 759 979 686 301 7 388 160 65 94 13 58 24 0 0 6 9 0 0 9 21 9 3 0 0 0 0

GFSSE_con_mlcape_030.txt.gz
CAPE
46 124 251 185 352 700 1051 1266 1464 1494 1620 1456 1097 1032 1041 1391 1728 1244 1311 1596 1742 1651 1571 1570 1522 1589 1437 784 910 1515 1139 1222 1134 1163 626 996 1171 1125 1226 1450 1502 547 541
40 128 273 467 612 1100 1205 1395 1437 1270 1265 1340 1164 1293 1337 1389 1269 1340 1569 1460 1588 1653 1676 1577 1436 1524 1449 1094 1111 1487 983 1315 1263 938 487 422 1063 866 1249 1395 1127 858 1298
21 103 285 455 935 1180 1302 1292 1258 1184 1138 1435 1383 1417 1441 1605 1710 1712 1676 1687 1527 1529 1617 1705 1580 1445 1494 1393 1352 1236 984 850 770 801 460 243 878 1213 1476 1203 719 1241 1333
39 146 344 551 927 1116 1185 1168 1389 1310 1269 1461 1430 1706 1743 1817 1741 1645 1588 1542 1547 1611 1618 1616 1605 1545 1480 1163 1450 1317 1023 947 862 817 383 420 690 1196 1049 973 688 708 1144
42 221 660 902 992 1129 1221 1374 1386 1508 1452 1307 1485 1542 1598 1689 1625 1519 1529 1545 1609 1532 1441 1660 1633 1686 1525 1095 1179 1220 736 1169 1517 1222 372 414 629 1149 1203 1177 920 1221 1254
88 290 892 930 806 914 1160 1314 1283 1220 1396 1679 1685 1608 1538 1642 1539 1470 1492 1535 1673 1668 1739 1482 1412 1527 1457 1095 1002 1023 683 909 461 507 288 588 726 986 936 1230 835 1107 1212
129 724 996 1020 991 1051 1151 1194 1182 1147 1382 1717 1703 1554 1504 1643 1483 1309 1389 1504 1678 1702 2000 1572 1267 1117 1221 1146 1064 1016 965 1015 171 194 416 476 912 1075 1447 1232 808 1163 670
312 1065 1280 1241 1227 1157 1170 1149 1087 1187 1586 1612 1731 1594 1389 1561 1194 1120 1237 1332 1537 1738 1680 1600 1166 1154 962 876 927 954 1210 931 416 290 346 876 1414 1562 1276 1197 919 965 687
653 1061 1221 1262 1201 1408 1531 1237 1115 1191 1568 1551 1673 1503 1419 1281 1030 1067 1011 1124 1282 1361 1494 1458 1250 1008 997 886 944 1000 800 671 313 174 171 718 1232 1457 1137 1195 1018 1124 723
513 933 987 1238 1377 1367 1569 1367 1118 1159 1398 1519 1355 1236 1134 859 855 1192 1175 1262 1321 1302 1291 1150 1281 1143 1057 1141 1169 551 333 40 0 6 142 369 409 833 945 1238 835 1050 972
436 719 928 1116 1512 1268 1258 1248 1240 1232 1341 1060 740 663 600 716 955 946 1200 1189 1301 1109 1348 985 1139 847 1350 1277 1063 607 260 0 0 65 657 207 876 504 500 1189 1115 1119 1163
477 572 706 1032 1170 904 1003 1057 931 917 682 339 251 328 574 648 423 800 1290 1048 1335 1140 1448 1044 926 403 212 1033 1273 773 204 9 0 9 502 565 778 1367 1560 1221 1539 1252 1201
494 656 704 773 924 396 463 675 440 264 155 77 68 305 679 890 816 1138 1170 1055 853 1162 957 1291 1208 709 886 1022 1184 658 199 31 0 0 83 931 904 1265 1115 1629 1460 1505 1363
589 605 605 708 626 210 155 200 51 57 54 48 199 607 856 1048 1196 1046 1040 822 1112 975 1296 1201 917 711 915 1008 957 952 648 251 213 52 442 862 923 1484 1596 1045 1395 1414 1282
762 755 723 831 875 615 284 68 0 131 239 445 479 647 903 978 921 1127 1107 1161 1184 1300 1293 1124 954 913 1045 1084 1135 680 414 635 765 512 342 839 833 1242 1806 1655 1048 1187 1315
670 644 706 611 939 715 684 309 58 500 669 626 666 805 1037 697 1127 1124 1223 1023 1368 1115 1124 1235 993 1076 881 1421 690 972 401 366 700 641 608 652 756 795 1199 1489 1827 1490 1258
400 552 546 492 654 718 687 561 442 989 979 898 908 891 1178 952 1089 873 918 936 968 1191 1255 1055 919 1000 712 312 9 149 296 56 171 603 575 595 804 576 909 1234 1351 1382 1500
409 572 722 655 625 689 640 833 1096 822 530 695 930 986 924 896 1068 1095 884 805 1279 1377 1240 898 745 440 5 0 0 1 0 4 13 136 511 533 740 690 737 520 852 1238 1118
471 619 844 814 855 700 879 1127 788 669 518 770 920 983 947 1123 1191 1021 847 1104 1196 1243 1076 926 616 182 0 0 0 0 0 12 31 37 12 67 243 907 863 779 561 643 969
294 585 744 747 782 833 881 798 706 561 507 1081 770 807 861 1065 1242 1113 769 1036 1108 828 978 476 425 3 0 0 0 0 3 8 57 27 29 192 212 846 1128 943 833 794 793
221 563 737 770 633 428 442 373 338 289 443 936 963 790 951 1061 1235 1071 855 1099 1068 942 774 483 31 0 0 0 0 0 10 2 13 14 60 215 605 1101 810 711 901 1028 1142
313 638 688 759 741 617 739 585 575 508 754 828 1025 1182 1253 1084 1218 1068 863 865 1030 987 569 98 0 0 0 0 0 0 0 3 8 3 0 125 467 696 503 369 472 780 512
275 555 551 656 879 813 928 915 850 749 1027 1183 1098 1094 1029 1171 1232 1124 758 589 850 813 323 4 0 0 0 0 0 0 0 0 18 9 2 97 195 109 15 0 118 433 294
323 367 411 530 923 982 1072 1061 904 874 798 692 798 1164 908 1066 1237 1203 853 661 573 653 102 4 0 0 0 0 0 0 0 0 4 0 0 0 0 0 0 0 0 30 15
263 388 457 469 909 1058 1119 1123 964 887 827 481 760 1313 1044 1169 1263 1136 951 780 297 167 16 0 0 5 0 0 0 0 0 0 0 0 0 0 0 0 0 0 0 0 4
263 417 518 566 816 1023 1152 1166 1087 987 816 489 906 969 1035 1153 1130 978 996 679 129 0 0 0 0 0 1 0 0 0 0 0 0 0 0 0 0 0 0 0 0 0 0

GFSSE_con_mlcape_033.txt.gz
CAPE
29 10 53 127 119 457 633 721 1203 1273 1127 1168 1036 783 1139 1588 1313 1464 1672 1715 1667 1655 1625 1561 1610 1226 832 1074 1258 1274 1149 1159 767 607 964 1065 1226 1475 1253 1558 548 616 1039
24 21 118 169 501 832 1032 1266 1483 1235 1215 1062 889 1138 1602 1410 1701 1808 1657 1630 1589 1676 1586 1478 1563 1151 1152 1223 1079 1124 1318 1031 871 417 554 842 1014 856 1369 1210 599 1014 1249
36 83 170 500 888 1172 1332 1386 1339 1331 1283 1270 1205 1451 1484 1524 1634 1630 1685 1498 1449 1569 1638 1678 1482 1424 1021 1105 1240 701 871 688 944 487 579 584 796 1104 1312 777 1344 1335 1211
64 190 274 810 951 1165 1264 1294 1438 1556 1593 1539 1470 1707 1770 1727 1666 1604 1512 1491 1505 1569 1487 1570 1562 1436 1394 1131 753 748 924 928 905 737 170 622 1026 1433 877 526 811 1069 1159
95 314 568 912 1014 1085 1231 1370 1520 1734 1670 1501 1717 1739 1645 1619 1497 1466 1445 1554 1495 1544 1792 1491 1603 1552 1433 1187 984 947 1106 1291 1339 705 339 445 914 1031 1079 547 820 1279 1346
121 442 780 1052 1010 1066 1205 1429 1604 1631 1525 1565 1466 1531 1636 1514 1449 1470 1526 1651 1580 1865 1631 1190 1260 1440 1435 1305 1062 833 1029 1128 1061 880 285 469 983 1297 1218 1075 1166 1236 1354
163 628 791 952 1068 1198 1264 1266 1267 1407 1553 1668 1577 1486 1633 1509 1449 1485 1529 1714 1683 1794 1702 1430 1189 1086 1318 1222 938 914 1008 733 481 500 451 377 871 990 1261 1013 1169 1049 1385
183 662 843 962 1068 1164 1194 1260 1208 1267 1640 1705 1552 1496 1594 1575 1386 1318 1454 1583 1706 1786 1548 1445 1073 1102 925 1014 1116 1227 1211 454 114 441 429 580 965 1422 1518 921 1211 620 1207
516 709 946 938 933 1072 1199 1175 1183 1437 1616 1695 1613 1497 1447 1497 1246 1253 1218 1270 1379 1432 1527 1371 1075 968 949 949 994 1080 1170 773 265 295 732 1025 1316 1412 1480 1012 978 677 872
594 726 795 959 981 1170 1294 1153 1161 1402 1647 1564 1520 1415 1302 1311 1233 1368 1249 1240 1369 1314 1353 1169 1034 974 1039 1090 875 712 965 504 70 18 379 717 1201 1562 1122 979 1256 1101 816
601 740 859 878 1138 1275 1246 1128 1177 1268 1522 1390 1279 1236 1308 1040 986 1148 1225 1181 1041 1324 1208 1141 1124 861 1240 1272 982 897 606 0 0 0 48 509 425 1004 1078 1342 1020 1122 1236
413 749 903 971 1186 1219 1180 1048 1030 956 1224 1128 757 658 839 664 694 495 988 1007 1122 1108 1155 1128 1041 543 497 1051 1189 1164 292 0 0 217 454 240 703 676 670 1202 1319 1285 1271
241 546 748 867 1056 922 886 797 756 701 712 562 289 240 417 669 655 877 1021 1004 910 1108 985 1230 1180 673 718 918 1027 653 146 0 0 0 453 544 933 1619 1565 1360 1746 1351 1296
241 299 545 856 1077 736 552 429 391 299 260 128 79 87 322 708 933 1004 821 905 873 833 939 1002 939 662 838 880 1000 966 559 63 3 0 1 985 830 1399 1475 1664 1511 1637 1459
327 333 472 622 804 348 92 154 173 102 107 30 0 87 523 802 981 877 951 919 876 1151 1140 1125 813 837 820 1037 1096 690 372 431 191 296 248 964 949 961 1619 1300 1478 1486 1321
490 397 489 492 470 249 0 0 0 13 2 38 96 322 608 768 838 992 861 1022 1065 836 1123 996 860 732 738 1296 760 795 379 257 540 510 264 537 477 683 1343 1892 1430 1271 1361
544 438 506 454 490 267 50 0 0 0 11 352 482 590 717 863 932 1003 930 922 1032 1025 1010 1114 872 854 434 181 2 1 84 340 426 630 375 382 633 420 716 1513 1520 1369 1348
584 550 561 519 465 566 390 267 254 149 352 726 790 792 814 903 901 895 763 732 884 1175 1133 821 659 210 0 0 0 0 0 2 5 355 635 514 465 624 481 403 775 977 1051
515 438 477 499 337 548 534 569 559 790 647 649 692 799 905 1015 979 1071 790 658 891 1158 1095 873 573 198 0 0 0 0 0 1 21 13 271 421 461 677 545 424 522 500 1080
370 316 340 421 392 358 552 600 506 799 520 594 662 796 853 1003 934 1107 874 886 1039 1015 924 531 326 0 0 0 0 0 0 3 32 33 21 79 74 501 801 698 579 729 661
335 269 356 460 527 426 464 591 731 733 568 553 824 837 835 987 1094 1133 846 832 771 797 749 445 115 0 0 0 0 0 0 0 6 19 39 284 309 674 950 693 552 552 889
353 240 330 525 596 611 474 638 875 740 596 469 548 814 790 943 1022 1054 881 860 927 907 582 507 50 0 0 0 0 0 0 0 4 3 23 269 411 686 546 538 592 768 781
302 245 414 503 504 624 550 580 698 498 428 383 522 848 977 1055 1124 1095 962 779 860 921 563 136 1 0 0 0 0 0 0 0 0 0 12 189 316 318 171 67 118 459 210
249 282 355 448 505 488 467 518 419 376 346 319 606 661 777 1055 1080 1079 971 753 579 640 551 67 0 0 0 0 0 0 0 0 0 0 4 39 37 53 2 0 1 179 151
227 266 282 275 449 545 549 547 532 578 503 388 465 851 969 967 1001 1085 995 762 506 523 352 27 0 0 0 0 0 0 0 0 0 0 0 0 0 0 0 0 0 0 10
253 178 354 308 519 609 565 622 676 686 640 495 472 554 520 997 1033 1036 1106 754 423 402 237 64 1 0 0 0 0 0 0 0 0 0 0 0 0 0 0 0 0 0 1